06.05.2024;17:00;30
06.05.2024;16:00;29
06.05.2024;15:00;22
06.05.2024;14:00;19
06.05.2024;13:00;22
06.05.2024;12:00;25
06.05.2024;11:00;37
06.05.2024;10:00;36
06.05.2024;09:00;38
06.05.2024;08:00;34
06.05.2024;07:00;33
06.05.2024;06:00;32
06.05.2024;05:00;30
06.05.2024;04:00;11
06.05.2024;03:00;15
06.05.2024;02:00;18
06.05.2024;01:00;26
06.05.2024;00:00;33
05.05.2024;23:00;31
05.05.2024;22:00;29
05.05.2024;21:00;23
05.05.2024;20:00;26
05.05.2024;19:00;21
05.05.2024;18:00;16
05.05.2024;17:00;14
05.05.2024;16:00;9
05.05.2024;15:00;13
05.05.2024;14:00;13
05.05.2024;13:00;14
05.05.2024;12:00;11
05.05.2024;11:00;14
05.05.2024;10:00;13
05.05.2024;09:00;17
05.05.2024;08:00;13
05.05.2024;07:00;16
05.05.2024;06:00;14
05.05.2024;05:00;21
05.05.2024;04:00;31
05.05.2024;03:00;34
05.05.2024;02:00;39
05.05.2024;01:00;35
05.05.2024;00:00;32
04.05.2024;23:00;38
04.05.2024;22:00;33
04.05.2024;21:00;28
04.05.2024;20:00;22
04.05.2024;19:00;22
04.05.2024;18:00;21
